[[{"header":{"parameterUnit":"m.s-1","parameterCategory":2,"la1":30.2992,"la2":30.254,"lo1":-89.0895,"lo2":-89.0443,"dy":0.0025,"dx":0.0025,"nx":19,"ny":19,"refTime":"2026-03-22T09:00:00:Z","depth":"0","parameterNumber":2,"parameterNumberName":"U-component_of_CURRENTS"},"data":[0,0,0,0.147,0.1472,0.1541,0.1542,0.1574,0.1574,0,0,0,0,0,0,0,0,0,0,0,0.1439,0.144,0.147,0.1472,0.1541,0.1542,0.1574,0.1574,0,0,0,0,0,0,0,0,0,0,0,0.1439,0.144,0.1441,0.1473,0.1541,0.1542,0.1574,0.1531,0,0,0,0,0,0,0,0,0,0,0.1469,0.1456,0.144,0.1441,0.1473,0.1541,0.1542,0.153,0.1534,0.1532,0,0.1554,0,0.1575,0.1577,0.1577,0,0,0,0.1455,0.1452,0.1476,0.1441,0.1474,0.1541,0.1505,0.1532,0.1537,0.1537,0.1554,0.1556,0.1575,0.1577,0.1577,0.1705,0.1706,0,0,0.1452,0.1444,0.1473,0.1479,0.1506,0.1503,0.1508,0.1536,0.1543,0.1555,0.1558,0.1576,0.1577,0.1577,0.1704,0.1705,0,0,0,0.1452,0.1441,0.1465,0.1477,0.15,0.1506,0.1511,0.1541,0.1551,0.1558,0.1576,0.1577,0.1578,0.1703,0.1704,0.1834,0,0,0,0.1449,0.1443,0.1463,0.1458,0.15,0.153,0.1515,0.1548,0.1553,0.1576,0.1577,0.1578,0.1701,0.1704,0.1828,0.1937,0,0,0,0.1434,0.1441,0.1455,0.1458,0.1497,0.1531,0.1541,0.155,0.1565,0.1577,0.1578,0.1701,0.1703,0.1822,0.1926,0.2267,0,0,0,0.1415,0.148,0.1455,0.1524,0.1497,0.1566,0.1541,0.1587,0.1604,0.1578,0.1702,0.1704,0.1821,0.1919,0.2256,0.2466,0.2535,0,0,0.1494,0.1489,0.1529,0.151,0.1574,0.1554,0.1641,0.1649,0.1645,0.1682,0.1685,0.183,0.1925,0.2265,0.262,0.2686,0,0,0,0.1553,0.1574,0.1595,0.1616,0.1645,0.1692,0.1682,0.1735,0.1816,0.1672,0.1848,0.1906,0.2117,0.2218,0.227,0.2376,0.1717,0.1716,0.1716,0.1646,0.1638,0.1681,0.1677,0.1718,0.1781,0.1889,0.1956,0.1881,0.1966,0.2023,0.2384,0.2485,0.2529,0.2631,0.2007,0.2008,0.2008,0.2008,0.172,0.1776,0.1713,0.1747,0.1783,0.1848,0.2047,0.2094,0.2382,0.219,0.239,0.2359,0.2595,0.2683,0.2017,0.2015,0.2014,0.2013,0.2013,0.1776,0.1826,0.1763,0.1783,0.1862,0.1937,0.2271,0.2408,0.2546,0.273,0.2969,0.2967,0.3055,0.2862,0.2864,0.2866,0.2867,0.2869,0.287,0.1931,0.1881,0.1921,0.1874,0.1946,0.2133,0.2455,0.2733,0.3111,0.3205,0.3208,0.3213,0.2649,0.2626,0.29,0.2895,0.2891,0.2888,0.2886,0.226,0.2137,0.2211,0.224,0.2356,0.2546,0.2788,0.3334,0.3655,0.3898,0.394,0.3522,0.3558,0.3513,0.3513,0.4003,0.4003,0.4003,0.4003,0.2531,0.2444,0.2588,0.2662,0.2784,0.282,0.3286,0.3661,0.4175,0.4436,0.4456,0.4235,0.4185,0.424,0.4179,0.4185,0.4834,0.4835,0.4836,0.2873,0.2801,0.2979,0.2858,0.2964,0.3102,0.3408,0.3819,0.4554,0.4869,0.4583,0.4548,0.4197,0.411,0.4148,0.4055,0.4043,0,0]},{"header":{"parameterUnit":"m.s-1","parameterCategory":2,"la1":30.2992,"la2":30.254,"lo1":-89.0895,"lo2":-89.0443,"dy":0.0025,"dx":0.0025,"nx":19,"ny":19,"refTime":"2026-03-22T09:00:00:Z","depth":"0","parameterNumber":3,"parameterNumberName":"V-component_of_CURRENTS"},"data":[0,0,0,-0.1376,-0.1378,-0.1479,-0.148,-0.1592,-0.1593,0,0,0,0,0,0,0,0,0,0,0,-0.1335,-0.1336,-0.1376,-0.1379,-0.1479,-0.148,-0.1591,-0.1593,0,0,0,0,0,0,0,0,0,0,0,-0.1335,-0.1336,-0.1337,-0.1379,-0.1479,-0.148,-0.1591,-0.1518,0,0,0,0,0,0,0,0,0,0,-0.1422,-0.1386,-0.1336,-0.1337,-0.138,-0.1479,-0.148,-0.1515,-0.1523,-0.1543,0,-0.156,0,-0.1585,-0.16,-0.1601,0,0,0,-0.1374,-0.1379,-0.1412,-0.1337,-0.1381,-0.1479,-0.1433,-0.1519,-0.1528,-0.1553,-0.1562,-0.1567,-0.1586,-0.1601,-0.1601,-0.1551,-0.1549,0,0,-0.1369,-0.1349,-0.1405,-0.1417,-0.141,-0.1429,-0.1436,-0.1525,-0.1532,-0.1563,-0.157,-0.1588,-0.1602,-0.1603,-0.1552,-0.155,0,0,0,-0.1356,-0.1345,-0.1376,-0.1412,-0.1435,-0.1432,-0.144,-0.1528,-0.154,-0.1571,-0.159,-0.1602,-0.1604,-0.1553,-0.1551,-0.1229,0,0,0,-0.1352,-0.1339,-0.1373,-0.1362,-0.1433,-0.1485,-0.1441,-0.1533,-0.1545,-0.1589,-0.1602,-0.1605,-0.1555,-0.1552,-0.1241,-0.1021,0,0,0,-0.133,-0.1336,-0.135,-0.1361,-0.1408,-0.1484,-0.1501,-0.1536,-0.1556,-0.1601,-0.1605,-0.1556,-0.1553,-0.1252,-0.1043,-0.0699,0,0,0,-0.1304,-0.134,-0.1349,-0.1386,-0.1407,-0.1444,-0.1501,-0.1547,-0.1582,-0.1603,-0.1555,-0.1552,-0.1255,-0.1056,-0.0716,-0.0498,-0.0404,0,0,-0.1337,-0.1343,-0.1363,-0.1374,-0.1391,-0.1429,-0.1355,-0.1434,-0.1527,-0.1528,-0.1528,-0.1237,-0.1044,-0.0703,-0.0307,-0.0216,0,0,0,-0.1365,-0.137,-0.1384,-0.1389,-0.1414,-0.1271,-0.1378,-0.1331,-0.127,-0.1533,-0.126,-0.1147,-0.0941,-0.0848,-0.0777,-0.0907,-0.1536,-0.1536,-0.1537,-0.1348,-0.1353,-0.1333,-0.1311,-0.1275,-0.1184,-0.1029,-0.097,-0.1161,-0.1047,-0.0905,-0.0446,-0.0351,-0.0293,-0.0434,-0.0973,-0.0971,-0.097,-0.097,-0.1317,-0.1216,-0.1205,-0.1176,-0.1007,-0.0892,-0.064,-0.0623,-0.0322,-0.0599,-0.0416,-0.054,-0.0195,-0.0374,-0.0949,-0.0953,-0.0955,-0.0957,-0.0959,-0.1205,-0.1117,-0.1159,-0.1005,-0.0749,-0.0578,-0.0065,0.0027,0.003,0.0233,0.0347,0.0341,0.0214,0.0318,0.0321,0.0324,0.0326,0.0328,0.0329,-0.0961,-0.0993,-0.0846,-0.0749,-0.0534,-0.0113,0.032,0.0605,0.0854,0.0798,0.0798,0.0374,-0.005,-0.0066,0.0368,0.0361,0.0356,0.0352,0.035,-0.056,-0.0655,-0.0437,-0.0276,0.0181,0.0632,0.0938,0.1467,0.1687,0.1842,0.1301,0.1112,0.1071,0.1008,0.1017,0.1708,0.1708,0.1708,0.1708,-0.0222,-0.0282,0.0074,0.0389,0.0828,0.1081,0.1741,0.2036,0.2033,0.1956,0.1783,0.1446,0.1397,0.1347,0.1277,0.1277,0.2019,0.2018,0.2018,0.0188,0.0177,0.0548,0.0675,0.1128,0.1552,0.2013,0.2346,0.2264,0.2002,0.1583,0.157,0.1017,0.0949,0.0791,0.0703,0.067,0,0]}],[{"header":{"parameterUnit":"m.s-1","parameterCategory":2,"la1":30.2992,"la2":30.254,"lo1":-89.0895,"lo2":-89.0443,"dy":0.0025,"dx":0.0025,"nx":19,"ny":19,"refTime":"2026-03-22T09:00:00:Z","depth":"2","parameterNumber":2,"parameterNumberName":"U-component_of_CURRENTS"},"data":[0,0,0,0.1553,0.1555,0.1637,0.1638,0.1695,0.1695,0,0,0,0,0,0,0,0,0,0,0,0.1519,0.152,0.1552,0.1555,0.1637,0.1638,0.1695,0.1695,0,0,0,0,0,0,0,0,0,0,0,0.1519,0.152,0.1521,0.1555,0.1637,0.1638,0.1695,0.1643,0,0,0,0,0,0,0,0,0,0,0.1569,0.1546,0.152,0.1521,0.1556,0.1637,0.1638,0.1641,0.1647,0.1645,0,0.1661,0,0.1683,0.1698,0.1699,0,0,0,0.155,0.1542,0.1566,0.1521,0.1556,0.1637,0.1599,0.1645,0.165,0.1651,0.1662,0.1665,0.1684,0.1699,0.1699,0.1772,0.1773,0,0,0.1546,0.1531,0.1563,0.157,0.1582,0.1596,0.1602,0.1649,0.1654,0.1662,0.1667,0.1685,0.1699,0.1699,0.1772,0.1772,0,0,0,0.1536,0.1528,0.1552,0.1567,0.1588,0.1599,0.1605,0.1651,0.166,0.1667,0.1686,0.1699,0.17,0.1771,0.1772,0.19,0,0,0,0.1533,0.1523,0.155,0.1542,0.1588,0.1628,0.1606,0.1657,0.1664,0.1685,0.1699,0.17,0.1771,0.1772,0.1895,0.1947,0,0,0,0.1515,0.1521,0.1532,0.1541,0.158,0.1628,0.164,0.1659,0.1674,0.1699,0.17,0.177,0.1771,0.1891,0.194,0.2112,0,0,0,0.1494,0.1526,0.1532,0.1568,0.1579,0.1632,0.164,0.1678,0.1699,0.17,0.1771,0.1772,0.189,0.1936,0.2106,0.2025,0.2049,0,0,0.1525,0.1529,0.155,0.1558,0.1604,0.162,0.169,0.1719,0.1715,0.175,0.1752,0.1897,0.194,0.2111,0.2087,0.2109,0,0,0,0.1553,0.1568,0.1583,0.161,0.1641,0.1709,0.1723,0.177,0.1845,0.1736,0.1883,0.1905,0.2011,0.1946,0.1964,0.1777,0.1777,0.1777,0.1777,0.1576,0.1589,0.1621,0.1647,0.1688,0.1765,0.1852,0.1914,0.188,0.1945,0.2,0.2198,0.2127,0.214,0.1988,0.1989,0.1989,0.199,0.199,0.1607,0.1635,0.165,0.1692,0.1758,0.1826,0.1981,0.2026,0.2205,0.211,0.2208,0.2068,0.2167,0.2,0.1998,0.1997,0.1996,0.1995,0.1994,0.1623,0.1645,0.1652,0.171,0.1807,0.1901,0.2117,0.2216,0.232,0.2426,0.24,0.2396,0.2323,0.2501,0.2502,0.2503,0.2504,0.2504,0.2505,0.1651,0.1658,0.1716,0.1752,0.1829,0.1981,0.2215,0.238,0.2531,0.2536,0.2536,0.2372,0.2355,0.2353,0.252,0.2518,0.2516,0.2514,0.2513,0.1725,0.1724,0.1797,0.1861,0.2004,0.2086,0.2313,0.2552,0.2741,0.2807,0.2622,0.2614,0.2582,0.2563,0.2565,0.2779,0.2779,0.2779,0.2779,0.1797,0.179,0.1903,0.1995,0.2116,0.2164,0.2305,0.2343,0.25,0.2486,0.2498,0.2308,0.2305,0.2245,0.2233,0.2223,0.2348,0.2347,0.2346,0.1879,0.189,0.1975,0.2013,0.2134,0.2206,0.2111,0.1919,0.2077,0.232,0.2334,0.2767,0.2511,0.2497,0.2416,0.2393,0.238,0,0]},{"header":{"parameterUnit":"m.s-1","parameterCategory":2,"la1":30.2992,"la2":30.254,"lo1":-89.0895,"lo2":-89.0443,"dy":0.0025,"dx":0.0025,"nx":19,"ny":19,"refTime":"2026-03-22T09:00:00:Z","depth":"2","parameterNumber":3,"parameterNumberName":"V-component_of_CURRENTS"},"data":[0,0,0,-0.0225,-0.0226,-0.0292,-0.0292,-0.0393,-0.0394,0,0,0,0,0,0,0,0,0,0,0,-0.0204,-0.0204,-0.0225,-0.0226,-0.0292,-0.0292,-0.0393,-0.0394,0,0,0,0,0,0,0,0,0,0,0,-0.0203,-0.0204,-0.0204,-0.0226,-0.0292,-0.0292,-0.0393,-0.0341,0,0,0,0,0,0,0,0,0,0,-0.0276,-0.0251,-0.0204,-0.0204,-0.0227,-0.0292,-0.0292,-0.0339,-0.0344,-0.0365,0,-0.0371,0,-0.0381,-0.04,-0.04,0,0,0,-0.0236,-0.0247,-0.0262,-0.0204,-0.0227,-0.0292,-0.0265,-0.0342,-0.0348,-0.0373,-0.0372,-0.0376,-0.0382,-0.0401,-0.0401,-0.0472,-0.0473,0,0,-0.0232,-0.0221,-0.0257,-0.0265,-0.0239,-0.0263,-0.0267,-0.0346,-0.0352,-0.0373,-0.0378,-0.0384,-0.0401,-0.0402,-0.0472,-0.0472,0,0,0,-0.0215,-0.0218,-0.0232,-0.0261,-0.027,-0.0264,-0.0269,-0.0349,-0.0352,-0.0379,-0.0385,-0.0402,-0.0403,-0.0472,-0.0472,-0.032,0,0,0,-0.0213,-0.0208,-0.023,-0.0225,-0.0268,-0.0308,-0.0271,-0.0347,-0.0356,-0.0385,-0.0402,-0.0404,-0.0472,-0.0472,-0.0324,-0.0214,0,0,0,-0.0201,-0.0207,-0.0212,-0.0224,-0.0248,-0.0307,-0.0316,-0.0349,-0.036,-0.0401,-0.0404,-0.0472,-0.0472,-0.0327,-0.0223,-0.0135,0,0,0,-0.0192,-0.018,-0.0212,-0.0205,-0.0247,-0.0275,-0.0315,-0.0354,-0.0388,-0.0402,-0.0472,-0.0472,-0.0328,-0.0228,-0.0141,-0.0174,-0.0151,0,0,-0.0164,-0.0176,-0.0171,-0.0201,-0.0209,-0.0267,-0.0262,-0.0328,-0.0398,-0.0449,-0.0451,-0.0322,-0.0223,-0.0136,-0.0186,-0.0162,0,0,0,-0.0154,-0.0152,-0.0161,-0.0177,-0.0211,-0.02,-0.0288,-0.0303,-0.034,-0.0417,-0.037,-0.0312,-0.0261,-0.0296,-0.0278,-0.0473,-0.0473,-0.0473,-0.0473,-0.0107,-0.0125,-0.0114,-0.0138,-0.0149,-0.0176,-0.0156,-0.02,-0.0298,-0.0295,-0.0224,-0.0098,-0.0139,-0.0124,-0.0291,-0.0291,-0.029,-0.029,-0.0289,-0.0055,-0.0041,-0.006,-0.0049,-0.0047,-0.0038,-0.0026,-0.0053,-0.002,-0.0133,-0.0092,-0.0179,-0.0094,-0.0278,-0.028,-0.0282,-0.0283,-0.0284,-0.0285,-0.0012,-0.0004,-0.0003,0.0033,0.0091,0.01,0.0241,0.0216,0.0142,0.0195,0.0118,0.0114,0.0046,0.02,0.0201,0.0201,0.0202,0.0203,0.0203,0.0038,0.0039,0.01,0.0137,0.0203,0.0321,0.0409,0.0448,0.0404,0.0306,0.0303,0.0067,0.0051,0.0072,0.0217,0.0214,0.0213,0.0211,0.021,0.0078,0.0109,0.019,0.0261,0.0433,0.0614,0.0661,0.0703,0.0685,0.0659,0.035,0.0342,0.0299,0.028,0.0304,0.0501,0.0501,0.0501,0.0501,0.0126,0.0141,0.0269,0.041,0.0605,0.0753,0.0945,0.0851,0.0665,0.0498,0.0498,0.0359,0.0347,0.0297,0.0277,0.0297,0.0493,0.0493,0.0493,0.0157,0.0181,0.0281,0.0423,0.0664,0.0907,0.107,0.0949,0.0624,0.0493,0.0501,0.05,0.0286,0.0271,0.0178,0.0153,0.0177,0,0]}],[{"header":{"parameterUnit":"m.s-1","parameterCategory":2,"la1":30.2992,"la2":30.254,"lo1":-89.0895,"lo2":-89.0443,"dy":0.0025,"dx":0.0025,"nx":19,"ny":19,"refTime":"2026-03-22T09:00:00:Z","depth":"4","parameterNumber":2,"parameterNumberName":"U-component_of_CURRENTS"},"data":[0,0,0,0.0705,0.0708,0.0853,0.0854,0.101,0.1011,0,0,0,0,0,0,0,0,0,0,0,0.0664,0.0665,0.0705,0.0708,0.0853,0.0854,0.101,0.1011,0,0,0,0,0,0,0,0,0,0,0,0.0663,0.0664,0.0666,0.0708,0.0853,0.0854,0.101,0.0909,0,0,0,0,0,0,0,0,0,0,0.0772,0.0728,0.0664,0.0666,0.0709,0.0853,0.0854,0.0905,0.0916,0.0933,0,0.0962,0,0.0983,0.102,0.1021,0,0,0,0.0716,0.072,0.0764,0.0666,0.071,0.0853,0.079,0.0911,0.0923,0.0947,0.0965,0.0971,0.0986,0.1021,0.1022,0.1182,0.1183,0,0,0.0708,0.0685,0.0756,0.0771,0.0757,0.0785,0.0795,0.0919,0.0931,0.0965,0.0974,0.0988,0.1022,0.1023,0.1182,0.1183,0,0,0,0.0679,0.0679,0.0721,0.0765,0.079,0.0789,0.08,0.0926,0.0942,0.0976,0.099,0.1023,0.1025,0.1181,0.1182,0.1227,0,0,0,0.0675,0.0662,0.0718,0.0705,0.0788,0.0862,0.0804,0.0934,0.0948,0.0989,0.1023,0.1026,0.118,0.1181,0.1224,0.125,0,0,0,0.0655,0.066,0.068,0.0703,0.0762,0.086,0.0884,0.0938,0.0956,0.1021,0.1026,0.1179,0.1181,0.1221,0.1245,0.129,0,0,0,0.0621,0.0636,0.068,0.0713,0.0761,0.0854,0.0883,0.0969,0.1028,0.1024,0.118,0.1182,0.1221,0.1243,0.1287,0.1127,0,0,0,0.0612,0.0635,0.0655,0.0698,0.0778,0.0834,0.0935,0.1028,0.106,0.1136,0.1141,0.1225,0.1245,0.1289,0.1234,0,0,0,0,0.0634,0.0661,0.0688,0.0757,0.0828,0.0931,0.1017,0.1067,0.1177,0.1101,0.1249,0.1261,0.1287,0.1186,0.1191,0.119,0.119,0.119,0.119,0.0595,0.0657,0.0714,0.081,0.0886,0.1016,0.1097,0.1189,0.1211,0.1276,0.1315,0.1404,0.1301,0.1331,0.1332,0.1332,0.1332,0.1332,0.1332,0.0607,0.0636,0.0759,0.0843,0.0965,0.1086,0.122,0.1269,0.1392,0.1385,0.1408,0.1262,0.1337,0.1336,0.1336,0.1335,0.1335,0.1334,0.1334,0.056,0.0582,0.0675,0.0844,0.1001,0.1151,0.1273,0.1365,0.1445,0.1488,0.1398,0.1447,0.1423,0.1515,0.1516,0.1516,0.1516,0.1516,0.1517,0.0461,0.0551,0.0641,0.0838,0.0962,0.112,0.1323,0.1394,0.149,0.1448,0.1523,0.1466,0.146,0.1435,0.1522,0.1521,0.152,0.152,0.1519,0.0375,0.0437,0.056,0.0674,0.0937,0.1035,0.1234,0.1365,0.1442,0.1447,0.1416,0.1419,0.139,0.1387,0.1357,0.1424,0.1422,0.1421,0,0.0305,0.0344,0.0478,0.0608,0.0782,0.0947,0.1058,0.119,0.1287,0.123,0.1396,0.1351,0.1355,0.1312,0.1307,0.1265,0,0,0,0.0268,0.0305,0.0359,0.0505,0.0692,0.0875,0.1073,0.1098,0.1268,0.1331,0.1378,0.1389,0.1473,0.1537,0.1502,0.1495,0.1452,0,0]},{"header":{"parameterUnit":"m.s-1","parameterCategory":2,"la1":30.2992,"la2":30.254,"lo1":-89.0895,"lo2":-89.0443,"dy":0.0025,"dx":0.0025,"nx":19,"ny":19,"refTime":"2026-03-22T09:00:00:Z","depth":"4","parameterNumber":3,"parameterNumberName":"V-component_of_CURRENTS"},"data":[0,0,0,0.0298,0.0298,0.0282,0.0282,0.0262,0.0262,0,0,0,0,0,0,0,0,0,0,0,0.0311,0.0311,0.0298,0.0298,0.0282,0.0282,0.0262,0.0262,0,0,0,0,0,0,0,0,0,0,0,0.0311,0.0311,0.0312,0.0298,0.0282,0.0282,0.0262,0.0272,0,0,0,0,0,0,0,0,0,0,0.0287,0.03,0.0311,0.0312,0.0298,0.0282,0.0282,0.0273,0.0272,0.0273,0,0.0282,0,0.0273,0.0262,0.0262,0,0,0,0.029,0.0301,0.0299,0.0312,0.0298,0.0282,0.0287,0.0272,0.0271,0.0272,0.0282,0.0281,0.0273,0.0262,0.0262,0.0278,0.0278,0,0,0.0291,0.0302,0.03,0.0299,0.031,0.0287,0.0287,0.0271,0.0275,0.0282,0.028,0.0272,0.0262,0.0262,0.0278,0.0278,0,0,0,0.0299,0.0303,0.0301,0.03,0.0298,0.0287,0.0286,0.0276,0.0277,0.028,0.0272,0.0262,0.0261,0.0277,0.0278,0.0255,0,0,0,0.0299,0.0308,0.0302,0.0307,0.0298,0.0286,0.0291,0.0278,0.0276,0.0272,0.0262,0.0261,0.0277,0.0278,0.0255,0.0231,0,0,0,0.0309,0.0308,0.0312,0.0308,0.0304,0.0286,0.0285,0.0277,0.0271,0.0262,0.0261,0.0277,0.0278,0.0255,0.0232,0.0187,0,0,0,0.0312,0.0357,0.0313,0.0367,0.0304,0.0346,0.0285,0.0313,0.0317,0.0261,0.0277,0.0278,0.0255,0.0232,0.0189,0.0258,0,0,0,0.0377,0.0365,0.04,0.0361,0.0404,0.0346,0.0357,0.0332,0.0316,0.028,0.028,0.0255,0.0232,0.0188,0.0291,0,0,0,0,0.0427,0.0439,0.0455,0.0459,0.0468,0.0407,0.0389,0.0346,0.0295,0.032,0.0273,0.0259,0.0231,0.0277,0.028,0.028,0.028,0.028,0.028,0.0483,0.0486,0.0516,0.0503,0.0512,0.0455,0.0398,0.0326,0.0335,0.03,0.0254,0.0224,0.0276,0.0279,0.0278,0.0278,0.0278,0.0278,0.0278,0.0527,0.0509,0.0509,0.0537,0.0478,0.0469,0.0361,0.0321,0.0218,0.0236,0.0211,0.0269,0.0276,0.0277,0.0277,0.0277,0.0277,0.0277,0.0278,0.0502,0.0484,0.0515,0.0508,0.048,0.0439,0.0365,0.028,0.0199,0.0158,0.0206,0.0196,0.0179,0.0155,0.0155,0.0155,0.0155,0.0154,0.0154,0.0428,0.0454,0.0454,0.0468,0.047,0.0444,0.0358,0.0296,0.0206,0.0177,0.0155,0.0181,0.0185,0.0172,0.015,0.0151,0.0151,0.0152,0.0152,0.0333,0.0363,0.038,0.0396,0.0425,0.0428,0.0383,0.0301,0.0221,0.0158,0.0175,0.0176,0.0179,0.0182,0.0169,0.0144,0.0145,0.0146,0,0.0248,0.0268,0.031,0.0356,0.0384,0.0414,0.0382,0.0332,0.0216,0.022,0.0176,0.0198,0.0198,0.0206,0.021,0.0198,0,0,0,0.0152,0.021,0.0229,0.0333,0.0387,0.0385,0.0378,0.0351,0.0257,0.0218,0.0165,0.016,0.0203,0.0136,0.0141,0.0146,0.0123,0,0]}]]